Regional Weather Roundup
Issued by NWS

Home | Current Version | Previous Version | Text Only | Print | Product List | Glossary Off
Versions: 1 2 3 4 5 6 7 8 9 10 11 12 13 14 15 16 17 18 19 20 21 22 23 24 25 26 27 28 29 30 31 32 33 34 35 36 37 38 39 40 41 42 43 44 45 46 47 48 49 50

000
ASUS43 KMKX 172200
RWRWI

WISCONSIN REGIONAL WEATHER ROUNDUP
NATIONAL WEATHER SERVICE MILWAUKEE/SULLIVAN WI
500 PM CDT FRI APR 17 2015

NOTE: "FAIR" INDICATES FEW OR NO CLOUDS BELOW 12,000 FEET WITH NO
SIGNIFICANT WEATHER AND/OR OBSTRUCTIONS TO VISIBILITY.

WIZ001-002-006>008-014>016-023>028-172300-
NORTHWEST WISCONSIN

CITY           SKY/WX    TMP DP  RH WIND       PRES   REMARKS
SUPERIOR ARPT  SUNNY     73  27  18 NW17      29.96S
ASHLAND        SUNNY     71  31  22 NE3       29.97F
HAYWARD        SUNNY     73  22  14 W8        29.98F
SIREN          SUNNY     73  22  15 W6G17     30.01S
CUMBERLAND     SUNNY     70  28  21 W10       30.00S
RICE LAKE      SUNNY     72  32  23 SW7       30.01F
CHETEK         SUNNY     73  37  26 W8        30.00S
LADYSMITH      SUNNY     74  34  23 W8        30.00S
EAU CLAIRE     SUNNY     75  40  28 W6        29.99S
MENOMONIE      SUNNY     74  38  27 W9        30.00F
NEW RICHMOND   SUNNY     72  30  21 W5        30.02S
OSCEOLA        SUNNY     73  30  20 NW7       30.04S
$$

WIZ003>005-009-010-017-018-172300-
NORTH CENTRAL WISCONSIN

CITY           SKY/WX    TMP DP  RH WIND       PRES   REMARKS
MANITOWISH WTR SUNNY     71  25  18 W10G18    29.97S
ARBOR VITAE    SUNNY     72  32  23 NW9       29.97F
WOODRUFF       SUNNY     72  32  23 NW9       29.97F
RHINELANDER    SUNNY     73  35  25 W14G20    29.97F
EAGLE RIVER    SUNNY     71  29  21 W10       29.96F
LAND O LAKES   SUNNY     71  25  18 NW5       29.97F
PHILLIPS       SUNNY     72  34  25 SW10      29.97F
TOMAHAWK       SUNNY     73  34  24 W7G18     29.97S
MEDFORD        SUNNY     71  42  35 SW7       29.99S
MERRILL        MOSUNNY   75  41  29 W16       29.96S
$$

WIZ029-030-035-036-043>047-172300-
CENTRAL WISCONSIN

CITY           SKY/WX    TMP DP  RH WIND       PRES   REMARKS
WAUSAU         MOSUNNY   73  41  31 W12       29.96S
MOSINEE        NOT AVBL
MARSHFIELD     MOSUNNY   75  43  31 NW10      29.98F
STEVENS POINT  MOSUNNY   73  39  28 W8        29.98F
WAUPACA        PTSUNNY   79  38  23 SW9       29.96F
WAUTOMA        NOT AVBL
WISC RAPIDS    SUNNY     76  38  25 NW8       29.98F
CAMP DOUGLAS   NOT AVBL
$$

WIZ011>013-019>022-031-037>040-048>050-172300-
NORTHEAST WISCONSIN

CITY           SKY/WX    TMP DP  RH WIND       PRES   REMARKS
ANTIGO         MOSUNNY   73  43  34 W12       29.97S
SHAWANO        CLOUDY    73  44  34 SE8G16    29.95F
OCONTO         SUNNY     64  43  46 SE12      29.98F
STURGEON BAY   SUNNY     59  37  44 SE9       30.02F
GREEN BAY      SUNNY     71  47  42 SE15      29.97F
MANITOWOC      NOT AVBL
APPLETON       MOSUNNY   72  37  28 VRB6      29.98F
CLINTONVILLE   MOSUNNY   73  39  29 S9        29.95F
OSHKOSH        SUNNY     73  43  33 E7        29.97F
$$

WIZ032>034-041-042-053>061-172300-
SOUTHWEST WISCONSIN

CITY           SKY/WX    TMP DP  RH WIND       PRES   REMARKS
LA CROSSE      SUNNY     80  42  25 NW9       29.98S
SPARTA         MOSUNNY   76  39  26 W8        29.99F
VIROQUA        SUNNY     75  40  28 W12       30.01S
BOSCOBEL       MOSUNNY   78  44  29 CALM      29.98F
PRAIRIE DU CHI MOSUNNY   77  40  26 CALM      29.98S
PLATTEVILLE    MOSUNNY   78  44  30 W12G17    30.00S
$$

WIZ056-057-062-063-064-067-068-172300-
SOUTH CENTRAL WISCONSIN

CITY           SKY/WX    TMP DP  RH WIND       PRES   REMARKS
REEDSBURG      PTSUNNY   77  43  30 W7        29.98S
BARABOO/DELLS  MOSUNNY   74  40  29 W5        29.98S
LONE ROCK      NOT AVBL
MINERAL POINT  MOSUNNY   77  39  25 W8        30.00F
MADISON        MOSUNNY   78  43  28 SW8       29.97F
MIDDLETON      MOSUNNY   78  39  24 W13       29.99S
WATERTOWN      PTSUNNY   75  46  35 W6        29.98S
MONROE         MOSUNNY   75  45  33 W7        29.99F
JANESVILLE     MOSUNNY   79  41  25 W9        29.98S
$$

WIZ051-052-058>065-066-070>072-172300-
SOUTHEAST WISCONSIN

CITY           SKY/WX    TMP DP  RH WIND       PRES   REMARKS
MILWAUKEE      MOSUNNY   61  39  44 E8        30.02R
WAUKESHA       PTSUNNY   68  45  42 E12       30.01S
MILWAUKEE/TIMM SUNNY     66  36  32 E6        30.02S
RACINE         CLOUDY    61  42  49 E8        30.03R
BURLINGTON     PTSUNNY   74  43  33 W3        29.99S
KENOSHA        PTSUNNY   67  45  45 E9        30.00S
FOND DU LAC    MOSUNNY   73  47  39 SE14      29.98S
SHEBOYGAN      MOSUNNY   60  42  51 E7        30.01F
WEST BEND      CLOUDY    66  36  32 E8        30.00S
JUNEAU         MOSUNNY   74  46  36 W5        29.99S
$$

LSZ147-162-172300-
LAKE SUPERIOR

STATION/POSITION TIME  TEMP    WIND        PRES    WAVE
                       AIR SEA DIR/SP/G            HT/PER
                 (UTC) (F)     (DEG/KT/KT) (MB)    (FT/S)
DEVILS ISLAND    2100   61     200/  6/  9 1014.9F
PORT WING        2140   69     250/ 10/ 15 1014.6F
SAXON HARBOR     2140   53        CALM     1015.2F
$$

LMZ867-665-643>646-172300-
LAKE MICHIGAN

STATION/POSITION TIME  TEMP    WIND        PRES    WAVE
                       AIR SEA DIR/SP/G            HT/PER
                 (UTC) (F)     (DEG/KT/KT) (MB)    (FT/S)
CHAMBERS ISLAND  2100   61     110/  8/ 12 1015.9F
NORTHPORT PIER   2100   52     150/  9/ 11 1016.3F
SISTER BAY       2102   62     190/ 14/ 16   N/A
KEWAUNEE LAKESHO 2100   50     170/  2/  4 1015.8F
SHEBOYGAN LAKESH 2100   43      30/  8/  8 1017.5F
PORT WASHINGTON  2100   48      50/  4/  5 1017.3
MILWAUKEE LAKESH 2100   50      40/  8/  8   N/A
KENOSHA   LAKESH 2100   54     120/  4/  7 1015.9F
$$

TC  - TEMPERATURE IN CELSIUS
VSB - VISIBILITY IN STATUTE MILES
WCI - WIND CHILL INDEX
HX  - HEAT INDEX




USA.gov is the U.S. government's official web portal to all federal, state and local government web resources and services.